Location: Unspecified
(58.4167°N, 0.0000°E)
Time: 02:39:59
(UTC+00:00)

Vanguard 3 - All Passes

Search period start: 04 April 2026 00:00
Search period end: 14 April 2026 00:00
Orbit: 508 x 3205 km, 33.3° (Epoch: 28 March)

Date Brightness Start Highest point End Pass type
(mag) Time Alt. Az. Time Alt. Az. Time Alt. Az.
4 Apr - 04:32:27 10° S 04:33:30 10° SSE 04:34:35 10° SSE visible
4 Apr - 06:39:59 10° SSW 06:43:17 12° S 06:47:07 10° SSE daylight
5 Apr - 05:20:11 10° S 05:21:58 11° S 05:23:55 10° SSE daylight
